Location: Godzisko
(49.9648°N, 19.4576°E)
Time: 07:41:30
(UTC+00:00)

Cosmos 1844 Rocket - Pass Details

Date: 20 April 2021
Orbit: 825 x 844 km, 71.0° (Epoch: 06 May)

Event Time Altitude Azimuth Distance (km) Brightness Sun altitude
Exits shadow 01:04:00 15° 281° (W) 2,084 4.5 -21.0°
Maximum altitude 01:06:56 22° 320° (NW) 1,729 4.4 -20.7°
Drops below altitude 10° 01:11:15 10° 11° (N) 2,442 6.0 -20.3°
Sets 01:14:15 0° 27° (NNE) 3,381 7.3 -20.0°
